Location: Praha
(50.0830°N, 14.4670°E)
Time: 18:02:31
(UTC+02:00)

ISS - Pass Details

Date: 14 July 2021
Orbit: 419 x 421 km, 51.6° (Epoch: 02 August)

Event Time Altitude Azimuth Distance (km) Brightness Sun altitude
Rises 03:44:12 0° 287° (WNW) 2,371 -0.1 -10.4°
Reaches altitude 10° 03:46:20 10° 282° (WNW) 1,504 -1.2 -10.2°
Maximum altitude 03:49:36 47° 207° (SSW) 568 -3.5 -9.9°
Drops below altitude 10° 03:52:50 10° 133° (SE) 1,497 -1.0 -9.5°
Sets 03:54:58 0° 127° (SE) 2,358 0.1 -9.3°
